Regional Weather Roundup
Issued by NWS

Home | Current Version | Previous Version | Text Only | Print | Product List | Glossary On
Versions: 1 2 3 4 5 6 7 8 9 10 11 12 13 14 15 16 17 18 19 20 21 22 23 24 25 26 27 28 29 30 31 32 33 34 35 36 37 38 39 40 41 42 43 44 45 46 47 48 49 50
000
ASUS43 KDTX 201701
RWRMI
MICHIGAN HOURLY REGIONAL WEATHER ROUNDUP
NATIONAL WEATHER SERVICE DETROIT/PONTIAC MI
1200 PM EST FRI JAN 20 2017

NOTE: "FAIR" INDICATES FEW OR NO CLOUDS BELOW 12,000 FEET WITH NO
SIGNIFICANT WEATHER AND/OR OBSTRUCTION TO VISIBILITY.

MIZ047>049-052>055-059>063-066>070-074>076-081>083-201800-
SOUTHEAST LOWER MICHIGAN

CITY           SKY/WX    TMP DP  RH WIND       PRES   REMARKS
ADRIAN         FOG       37  37 100 E5        29.65F VSB 1   WCI  33
ALMA           LGT RAIN  32  32  99 NE8       29.69F WCI  25
ANN ARBOR      FOG       37  36  96 NE6       29.65F VSB 3/4 WCI  32
BAD AXE        MIX PCPN  34  34 100 E6        29.71F WCI  29
CARO           CLOUDY    35  33  93 NE3       29.69F FOG
DETROIT CITY   FOG       36  36 100 E8        29.67F VSB 1   WCI  30
DETROIT        LGT RAIN  38  37  97 NE6       29.66F VSB 3/4 WCI  33
FLINT          MIX PCPN  35  34  96 E8        29.67F FOG     WCI  29
GROSSE ILE     FOG       37  37  97 NE3       29.65F VSB 1
HILLSDALE      FOG       36  36 100 CALM      29.62S VSB 1
HOWELL         LGT RAIN  35  34  96 E5        29.65F VSB 1   WCI  31

CITY           SKY/WX    TMP DP  RH WIND       PRES   REMARKS
JACKSON        FOG       37  35  92 E5        29.64F VSB 1   WCI  33
LAMBERTVILLE   FOG       38  37  95 CALM      29.65S VSB 1
LANSING        CLOUDY    35  32  88 E7        29.67S FOG     WCI  29
LAPEER         LGT RAIN  34  34  99 E3        29.67F
MASON          FOG       34  34  99 E6        29.66F VSB 1   WCI  29
MONROE         FOG       38  38 100 SE5       29.64F VSB 1   WCI  34
MT. CLEMENS    CLOUDY    36  36 100 E8        29.65F FOG     WCI  29
PONTIAC        DRZL/FOG  35  33  92 E8        29.65S VSB 3/4 WCI  29
PORT HOPE        N/A     34  33  96 E9        29.71F WCI  27
PORT HURON     LGT RAIN  36  36 100 E8        29.68F WCI  29
TRI CITIES     FOG       33  33 100 NE10      29.70F VSB 1/4 WCI  25
MIDLAND        CLOUDY    34  33  96 E8        29.70F FOG     WCI  27
TROY           MIX PCPN  36  35  95 E6        29.68F WCI  31
SAGINAW HB     MIX PCPN  34  32  93 N6        29.70F WCI  29
$$
MIZ043>046-050>051-056>058-064>065-071>073-077>080-201800-
SOUTHWEST LOWER MICHIGAN

CITY           SKY/WX    TMP DP  RH WIND       PRES   REMARKS
BATTLE CREEK   CLOUDY    36  35  96 E5        29.65F FOG     WCI  32
BENTON HARBOR  FOG       40  37  89 SE3       29.66S VSB 1
BIG RAPIDS     MIX PCPN  34  32  91 E6        29.66F WCI  29
COLDWATER      CLOUDY    38  38 100 E3        29.64S FOG
FREMONT        RAIN      35  34  98 E6        29.67S WCI  30
HOLLAND        CLOUDY    36  34  92 E7        29.68R WCI  30
GRAND RAPIDS   CLOUDY    35  33  92 E9        29.66S FOG     WCI  28
IONIA          MIX PCPN  33  33  99 NE6       29.66S WCI  28
KALAMAZOO      FOG       38  35  89 E5        29.66S VSB 1   WCI  34
LUDINGTON      CLOUDY    39  34  81 E6        29.67S WCI  35
MARSHALL       CLOUDY    36  36  98 E5        29.64F FOG     WCI  32
MOUNT PLEASANT LGT RAIN  33  32  97 E6        29.69F WCI  28
MUSKEGON       LGT RAIN  37  35  92 E8        29.68R FOG     WCI  31
SOUTH HAVEN    CLOUDY    37  37  97 CALM      29.67R FOG
$$
MIZ016>042-201800-
NORTHERN LOWER MICHIGAN

CITY           SKY/WX    TMP DP  RH WIND       PRES   REMARKS
ALPENA         FOG       34  33  96 E7        29.76F VSB 1/4 WCI  28
BEAVER ISLAND  CLOUDY    32  32 100 E7        29.73F FOG     WCI  25
BELLAIRE       CLOUDY    36  32  87 CALM      29.72F
CADILLAC       CLOUDY    34  32  92 E8        29.66F FOG     WCI  27
CHARLEVOIX     CLOUDY    33  33 100 E7        29.74F FOG     WCI  27
FRANKFORT      CLOUDY    40  35  82 NE3       29.68F
GAYLORD        CLOUDY    34  30  85 NE5       29.70F WCI  30
GRAYLING       CLOUDY    33  32  96 E8        29.71F FOG     WCI  26
HARBOR SPRINGS CLOUDY    32  32 100 NE10      29.72F FOG     WCI  24
HOUGHTON LAKE  CLOUDY    33  31  92 E7        29.69F WCI  27
MANISTEE       CLOUDY    39  33  79 E5        29.68F
OSCODA         FOG       35  34  97 NE6       29.73F VSB 1/4 WCI  30
PELLSTON       CLOUDY    32  30  92 E9        29.74F FOG     WCI  24
ROGERS CITY    FOG       34  33  96 E6        29.77F VSB 1/2 WCI  29
TRAVERSE CITY  LGT RAIN  36  33  89 NE6       29.69F FOG     WCI  31
$$
MIZ007>008-015-201800-
EASTERN UPPER MICHIGAN

CITY           SKY/WX    TMP DP  RH WIND       PRES   REMARKS
KINROSS        FOG       34  33  96 E8        29.76F VSB 1   WCI  27
MACKINAC ISLAN CLOUDY    32  32 100 E9G17     29.74F FOG     WCI  24
NEWBERRY       FOG       32  31  96 SE6       29.75F VSB 1   WCI  26
S. S. MARIE    CLOUDY    35  33  92 SE5       29.76F FOG     WCI  31
MUNISING         N/A     34  32  92 S7        29.72F WCI  28
$$
MIZ004>006-011>014-085-201800-
CENTRAL UPPER MICHIGAN

CITY           SKY/WX    TMP DP  RH WIND       PRES   REMARKS
MANISTIQUE     CLOUDY    32  32  99 E5        29.74F FOG     WCI  27
ESCANABA       CLOUDY    34  33  96 NE6       29.73F FOG     WCI  29
SAWYER-GWINN   FOG       30  30 100 S3        29.71F VSB 1/2
$$
MIZ001>003-009>011-084-201800-
WESTERN UPPER MICHIGAN

CITY           SKY/WX    TMP DP  RH WIND       PRES   REMARKS
IRON MOUNTAIN  CLOUDY    32  29  88 E6        29.70S FOG     WCI  26
HOUGHTON       CLOUDY    33  30  88 E3        29.69F
COPPER HARBOR    N/A     37  32  82 VRB7      29.70F WCI  32
IRONWOOD       LGT RAIN  37  30  75 E5        29.67F WCI  33
$$

ABBREVIATIONS USED IN REMARKS
   TC - TEMPERATURE IN CELSIUS
  WCI - WIND CHILL INDEX
   HX - HEAT INDEX
  VSB - VISIBILITY




USA.gov is the U.S. government's official web portal to all federal, state and local government web resources and services.